Butte, MT

11:34 AM MST on December 06, 2016 (GMT -0700)
Mooney

Weather History for KBTM - June, 2014

Change the Weather History Date:

Wednesday, June 18, 2014

  Actual Average Record
Temperature  
Mean Temperature 45 °F 56 °F  
Max Temperature 53 °F 71 °F 92 °F (1974)
Min Temperature 37 °F 42 °F 27 °F (1954)
Degree Days  
Heating Degree Days 20 9  
Month to date heating degree days 247 200  
Since 1 June heating degree days 247 200  
Since 1 July heating degree days 8996 9132  
Cooling Degree Days 0 0  
Month to date cooling degree days 0 0  
Year to date cooling degree days 0 0  
Since 1 June cooling degree days 0 0  
Moisture  
Dew Point 35 °F    
Average Humidity 65    
Maximum Humidity 92    
Minimum Humidity 38    
Precipitation  
Precipitation 0.14 in 0.07 in 0.51 in (1975)
Month to date precipitation 1.68 1.53  
Year to date precipitation 5.96 6.44  
Sea Level Pressure  
Sea Level Pressure 29.94 in    
Wind  
Wind Speed 7 mph (WNW)    
Max Wind Speed 20 mph    
Max Gust Speed 30 mph    
Visibility 10 miles    
Events Rain    
T = Trace of Precipitation, MM = Missing Value Source: NWS Daily Summary

Daily Weather History Graph

Daily Weather History Graph

Search for Another Location

Airport or City:

Trip Planner

Search our weather history database for the weather conditions in past years. The results will help you decide how hot, cold, wet, or windy it might be!

Date:

Astronomy

Jun. 18, 2014 Rise Set
Actual Time 5:38 AM MDT 9:23 PM MDT
Civil Twilight 5:00 AM MDT 10:02 PM MDT
Nautical Twilight 4:08 AM MDT 10:54 PM MDT
Astronomical Twilight 2:56 AM MDT 12:06 AM MDT
Moon 12:37 AM MDT (6/18) 12:25 PM MDT (6/18)
Length of Visible Light 17h 01m
Length of Day
15h 44m
Waning Gibbous, 62% of the Moon is Illuminated
Jun 18
Waning Gibbous
Jun 19
Last Quarter
Jun 27
New
Jul 5
First Quarter
Jul 12
Full

Hourly Weather History & Observations

Time (MDT) Temp. Windchill Dew Point Humidity Pressure Visibility Wind Dir Wind Speed Gust Speed Precip Events Conditions
12:37 AM 39.9 °F - 37.9 °F 93% 29.96 in 10.0 mi Calm Calm - N/A   Overcast
12:53 AM 39.0 °F - 37.0 °F 93% 29.95 in 10.0 mi Calm Calm - N/A   Overcast
1:53 AM 39.0 °F - 36.0 °F 89% 29.95 in 10.0 mi Calm Calm - N/A   Overcast
2:03 AM 39.0 °F - 37.0 °F 93% 29.96 in 10.0 mi Calm Calm - N/A   Overcast
2:53 AM 39.0 °F 34.8 °F 36.0 °F 89% 29.94 in 10.0 mi WNW 5.8 mph - N/A   Overcast
3:12 AM 39.0 °F 35.7 °F 35.1 °F 86% 29.96 in 10.0 mi WNW 4.6 mph - N/A   Overcast
3:53 AM 39.0 °F 35.7 °F 35.1 °F 86% 29.92 in 10.0 mi West 4.6 mph - N/A   Overcast
4:53 AM 37.0 °F 31.6 °F 34.0 °F 89% 29.95 in 10.0 mi WNW 6.9 mph - N/A   Mostly Cloudy
5:00 AM 37.0 °F 32.4 °F 34.0 °F 89% 29.95 in 10.0 mi WNW 5.8 mph - N/A   Mostly Cloudy
5:09 AM 37.0 °F 31.6 °F 34.0 °F 89% 29.95 in 10.0 mi WNW 6.9 mph - N/A   Overcast
5:31 AM 37.0 °F 31.0 °F 34.0 °F 89% 29.94 in 10.0 mi WNW 8.1 mph - N/A   Overcast
5:53 AM 37.0 °F 32.4 °F 34.0 °F 89% 29.96 in 10.0 mi WNW 5.8 mph - N/A   Overcast
6:53 AM 37.0 °F - 34.0 °F 89% 29.96 in 10.0 mi Calm Calm - N/A   Scattered Clouds
7:53 AM 39.0 °F 34.8 °F 34.0 °F 82% 29.96 in 10.0 mi NNW 5.8 mph - N/A   Overcast
8:53 AM 39.9 °F 36.7 °F 34.0 °F 79% 29.97 in 10.0 mi NW 4.6 mph - N/A   Mostly Cloudy
9:53 AM 44.1 °F 40.1 °F 32.0 °F 63% 29.95 in 10.0 mi NNE 6.9 mph - N/A   Scattered Clouds
10:53 AM 46.0 °F 41.0 °F 30.9 °F 56% 29.92 in 10.0 mi NW 10.4 mph 19.6 mph N/A   Overcast
11:53 AM 46.9 °F - 28.9 °F 50% 29.91 in 10.0 mi West 10.4 mph - N/A   Overcast
12:53 PM 50.0 °F - 28.0 °F 43% 29.89 in 10.0 mi SW 15.0 mph 25.3 mph N/A   Overcast
1:53 PM 51.1 °F - 28.0 °F 41% 29.89 in 10.0 mi SW 15.0 mph 23.0 mph N/A   Mostly Cloudy
2:53 PM 52.0 °F - 28.0 °F 40% 29.88 in 10.0 mi WSW 12.7 mph 20.7 mph N/A   Mostly Cloudy
3:53 PM 53.1 °F - 28.9 °F 40% 29.88 in 10.0 mi WSW 13.8 mph 23.0 mph N/A   Partly Cloudy
4:53 PM 51.1 °F - 30.9 °F 46% 29.91 in 10.0 mi WSW 12.7 mph 23.0 mph 0.00 in Rain Light Rain
5:53 PM 46.9 °F - 37.0 °F 68% 29.94 in 10.0 mi NNW 9.2 mph - 0.00 in Rain Light Rain
6:43 PM 46.0 °F 43.9 °F 39.9 °F 79% 29.98 in 8.0 mi NE 4.6 mph - 0.02 in Rain Light Rain
6:53 PM 45.0 °F - 39.9 °F 82% 29.98 in 10.0 mi Calm Calm - 0.02 in Rain Light Rain
7:53 PM 45.0 °F - 39.0 °F 80% 29.99 in 6.0 mi Calm Calm - 0.06 in Rain Light Rain
8:53 PM 45.0 °F 42.6 °F 41.0 °F 86% 29.97 in 10.0 mi NE 4.6 mph - 0.04 in Rain Light Rain
9:53 PM 45.0 °F - 41.0 °F 86% 29.97 in 10.0 mi Calm Calm - 0.02 in Rain Light Rain
10:53 PM 44.1 °F 42.5 °F 41.0 °F 89% 29.97 in 10.0 mi NNE 3.5 mph - 0.00 in   Overcast
11:53 PM 46.0 °F - 37.9 °F 73% 29.95 in 10.0 mi Calm Calm - N/A   Overcast